User: anonymous   Login
Location: Unspecified
(0.0000°N, 0.0000°E)
Time: 15:09:13
(UTC+02:00)
Language:

CZ-4 DEB - Orbit

View from above orbital plane
View from above orbital plane
View from above satellite
View from above satellite

Ground track
Ground track

The orbit data is extracted from the following two-line orbital elements,

1 29508U 06046D   15215.12879543  .00019943  00000-0  66491-3 0  9998
2 29508 097.6847 235.6169 0002272 322.7510 078.1584 15.31124871479907
Epoch (UTC): 03 August 2015 03:05:27
Eccentricity: 0.0002272
inclination: 97.6847°
perigee height: 471 km
apogee height: 474 km
right ascension of ascending node: 235.6169°
argument of perigee: 322.7510°
revolutions per day: 15.31124871
mean anomaly at epoch: 78.1584°
orbit number at epoch: 47990

The dashed part of the orbit path shows where the satellite is in the earth's shadow,  

DLR